| time (UTC) | temp C | wind direction | speed KPH | gust KPH | rain 1hr cm | rain 24hr cm | rain mn cm | humidity % | barometer mb |
| 20260505073003 | 14 | 337 | 0.0 | 0.0 | 0.00 | 0.03 | 0.00 | 89 | 1008.0 |
| 20260505071600 | 13 | 225 | 0.0 | 0.0 | 0.00 | 0.03 | 0.00 | 89 | 1008.1 |
| 20260505070104 | 13 | 225 | 0.0 | 0.0 | 0.00 | 0.03 | 0.00 | 91 | 1008.2 |
| 20260505064607 | 13 | 225 | 0.0 | 0.0 | 0.00 | 0.03 | 0.00 | 91 | 1008.3 |
| 20260505063053 | 12 | 225 | 0.0 | 0.0 | 0.00 | 0.03 | 0.00 | 91 | 1008.3 |
| 20260505061551 | 12 | 225 | 0.0 | 0.0 | 0.00 | 0.03 | 0.00 | 91 | 1008.5 |
| 20260505060049 | 12 | 213 | 0.0 | 0.0 | 0.00 | 0.03 | 0.00 | 91 | 1008.5 |
| 20260505054614 | 12 | 218 | 0.0 | 0.0 | 0.00 | 0.03 | 0.00 | 91 | 1008.6 |
| 20260505053050 | 12 | 221 | 0.0 | 0.0 | 0.00 | 0.03 | 0.00 | 90 | 1008.5 |
| 20260505051546 | 12 | 234 | 0.0 | 0.0 | 0.00 | 0.03 | 0.00 | 90 | 1008.4 |
| 20260505041548 | 11 | 36 | 0.0 | 0.0 | 0.00 | 0.03 | 0.00 | 87 | 1008.3 |
| 20260505040042 | 11 | 36 | 0.0 | 0.0 | 0.00 | 0.03 | 0.00 | 87 | 1008.3 |
| 20260505034538 | 11 | 36 | 0.0 | 0.0 | 0.00 | 0.03 | 0.00 | 88 | 1008.2 |
| 20260505033037 | 11 | 62 | 0.0 | 0.0 | 0.00 | 0.03 | 0.00 | 88 | 1008.3 |
| 20260505031539 | 12 | 31 | 0.0 | 0.0 | 0.00 | 0.03 | 0.00 | 88 | 1008.4 |
| 20260505030038 | 12 | 30 | 0.0 | 0.0 | 0.00 | 0.03 | 0.00 | 88 | 1008.5 |
| 20260505024530 | 12 | 30 | 0.0 | 0.0 | 0.00 | 0.03 | 0.00 | 89 | 1008.6 |
| 20260505023028 | 12 | 30 | 0.0 | 0.0 | 0.00 | 0.03 | 0.00 | 89 | 1008.8 |
| 20260505021525 | 12 | 30 | 0.0 | 0.0 | 0.00 | 0.03 | 0.00 | 88 | 1008.9 |
| 20260505020029 | 12 | 25 | 0.0 | 0.0 | 0.00 | 0.03 | 0.00 | 88 | 1009.1 |
| 20260505014523 | 12 | 74 | 0.0 | 0.0 | 0.00 | 0.03 | 0.00 | 87 | 1009.1 |
| 20260505013021 | 12 | 74 | 0.0 | 0.0 | 0.00 | 0.03 | 0.00 | 87 | 1009.4 |
| 20260505011520 | 12 | 74 | 0.0 | 0.0 | 0.00 | 0.03 | 0.00 | 86 | 1009.3 |
| 20260505010017 | 12 | 43 | 0.0 | 0.0 | 0.00 | 0.03 | 0.00 | 86 | 1009.5 |
| 20260505004514 | 12 | 101 | 0.0 | 0.0 | 0.00 | 0.03 | 0.00 | 85 | 1009.7 |
| 20260505003012 | 12 | 101 | 0.0 | 0.0 | 0.00 | 0.03 | 0.00 | 86 | 1009.9 |
| 20260505001510 | 13 | 101 | 0.0 | 0.0 | 0.00 | 0.03 | 0.00 | 86 | 1010.0 |
| 20260505000012 | 13 | 101 | 0.0 | 0.0 | 0.00 | 0.03 | 0.00 | 86 | 1010.2 |
| 20260504234507 | 13 | 92 | 0.0 | 0.0 | 0.00 | 0.03 | 0.00 | 86 | 1010.3 |
| 20260504233005 | 13 | 163 | 0.0 | 0.0 | 0.00 | 0.03 | 0.00 | 86 | 1010.4 |
| 20260504231503 | 13 | 64 | 0.0 | 0.0 | 0.00 | 0.03 | 0.00 | 86 | 1010.5 |
| 20260504230005 | 13 | 58 | 0.0 | 0.0 | 0.00 | 0.03 | 0.00 | 87 | 1010.5 |
| 20260504224505 | 13 | 53 | 0.0 | 0.0 | 0.00 | 0.03 | 0.00 | 87 | 1010.6 |
| 20260504223200 | 13 | 39 | 0.0 | 0.0 | 0.00 | 0.03 | 0.00 | 87 | 1010.6 |
| 20260504221558 | 13 | 55 | 0.0 | 0.0 | 0.00 | 0.03 | 0.00 | 87 | 1010.5 |
| 20260504220058 | 13 | 38 | 0.0 | 0.0 | 0.00 | 0.03 | 0.00 | 86 | 1010.6 |
| 20260504214555 | 13 | 92 | 0.0 | 0.0 | 0.00 | 0.03 | 0.03 | 87 | 1011.0 |
| 20260504213054 | 13 | 92 | 0.0 | 0.0 | 0.00 | 0.03 | 0.03 | 86 | 1011.2 |
| 20260504211558 | 13 | 92 | 0.0 | 0.0 | 0.00 | 0.03 | 0.03 | 86 | 1011.4 |
| 20260504210101 | 13 | 92 | 0.0 | 0.0 | 0.00 | 0.03 | 0.03 | 86 | 1011.4 |
| 20260504204554 | 14 | 92 | 0.0 | 0.0 | 0.00 | 0.03 | 0.03 | 86 | 1011.4 |
| 20260504203050 | 14 | 92 | 0.0 | 0.0 | 0.00 | 0.03 | 0.03 | 86 | 1011.4 |
| 20260504201550 | 14 | 92 | 0.0 | 0.0 | 0.00 | 0.03 | 0.03 | 85 | 1011.5 |
| 20260504200100 | 14 | 92 | 0.0 | 0.0 | 0.00 | 0.03 | 0.03 | 85 | 1011.3 |
| 20260504194549 | 14 | 92 | 0.0 | 0.0 | 0.00 | 0.03 | 0.03 | 85 | 1011.3 |
| 20260504193050 | 15 | 71 | 0.0 | 0.0 | 0.00 | 0.03 | 0.03 | 84 | 1011.3 |
| 20260504191604 | 15 | 62 | 0.0 | 0.0 | 0.00 | 0.03 | 0.03 | 84 | 1011.0 |
| 20260504190047 | 15 | 59 | 0.0 | 0.0 | 0.00 | 0.03 | 0.03 | 84 | 1010.8 |
| 20260504184546 | 15 | 54 | 0.0 | 0.0 | 0.00 | 0.03 | 0.03 | 83 | 1010.8 |
| 20260504183043 | 15 | 80 | 0.0 | 0.0 | 0.03 | 0.03 | 0.03 | 82 | 1011.0 |
| 20260504181542 | 15 | 197 | 0.0 | 0.0 | 0.03 | 0.03 | 0.03 | 81 | 1011.3 |
| 20260504180042 | 15 | 197 | 0.0 | 0.0 | 0.03 | 0.03 | 0.03 | 80 | 1011.5 |
| 20260504174540 | 16 | 200 | 0.0 | 0.0 | 0.03 | 0.03 | 0.03 | 78 | 1011.6 |
| 20260504173037 | 16 | 192 | 0.0 | 4.8 | 0.00 | 0.00 | 0.00 | 76 | 1011.9 |
| 20260504171536 | 16 | 132 | 0.0 | 3.2 | 0.00 | 0.00 | 0.00 | 73 | 1011.9 |
| 20260504081539 | 18 | 155 | 0.0 | 8.0 | 0.00 | 0.00 | 0.00 | 54 | 1012.7 |